| time (UTC) | temp F | wind direction | speed MPH | gust MPH | rain 1hr in | rain 24hr in | rain mn in | humidity % | barometer mb |
| 20260903220002 | 62 | 243 | 0.0 | 2.0 | 0.00 | 0.00 | 0.00 | 78 | 1022.0 |
| 20260903214547 | 63 | 253 | 0.0 | 0.0 | 0.00 | 0.00 | 0.00 | 77 | 1022.1 |
| 20260903213058 | 63 | 295 | 0.0 | 0.0 | 0.00 | 0.00 | 0.00 | 75 | 1022.1 |
| 20260903211550 | 64 | 296 | 0.0 | 0.0 | 0.00 | 0.00 | 0.00 | 74 | 1022.1 |
| 20260903210052 | 65 | 294 | 0.0 | 0.0 | 0.00 | 0.00 | 0.00 | 72 | 1022.2 |
| 20260903204604 | 66 | 268 | 0.0 | 1.0 | 0.00 | 0.00 | 0.00 | 70 | 1022.3 |
| 20260903203049 | 67 | 360 | 0.0 | 1.0 | 0.00 | 0.00 | 0.00 | 68 | 1022.4 |
| 20260903201554 | 68 | 44 | 0.0 | 0.0 | 0.00 | 0.00 | 0.00 | 66 | 1022.4 |
| 20260903200048 | 69 | 46 | 0.0 | 1.0 | 0.00 | 0.00 | 0.00 | 64 | 1022.3 |
| 20260903194548 | 71 | 46 | 0.0 | 0.0 | 0.00 | 0.00 | 0.00 | 61 | 1022.3 |
| 20260903193051 | 72 | 46 | 0.0 | 1.0 | 0.00 | 0.00 | 0.00 | 59 | 1022.3 |
| 20260903191549 | 74 | 46 | 0.0 | 0.0 | 0.00 | 0.00 | 0.00 | 57 | 1022.2 |
| 20260903190105 | 74 | 45 | 0.0 | 0.0 | 0.00 | 0.00 | 0.00 | 56 | 1022.1 |
| 20260903184544 | 75 | 45 | 0.0 | 0.0 | 0.00 | 0.00 | 0.00 | 55 | 1022.1 |
| 20260903183105 | 77 | 45 | 0.0 | 0.0 | 0.00 | 0.00 | 0.00 | 52 | 1021.9 |
| 20260903181605 | 80 | 45 | 0.0 | 1.0 | 0.00 | 0.00 | 0.00 | 48 | 1021.8 |
| 20260903180112 | 82 | 46 | 0.0 | 1.0 | 0.00 | 0.00 | 0.00 | 46 | 1021.6 |
| 20260903174545 | 84 | 16 | 0.0 | 1.0 | 0.00 | 0.00 | 0.00 | 43 | 1021.7 |
| 20260903173104 | 86 | 71 | 0.0 | 1.0 | 0.00 | 0.00 | 0.00 | 38 | 1021.7 |
| 20260903171548 | 85 | 270 | 1.0 | 3.0 | 0.00 | 0.00 | 0.00 | 37 | 1021.8 |
| 20260903170211 | 87 | 329 | 0.0 | 2.0 | 0.00 | 0.00 | 0.00 | 38 | 1021.9 |
| 20260903164552 | 87 | 212 | 0.0 | 2.0 | 0.00 | 0.00 | 0.00 | 38 | 1021.9 |
| 20260903163057 | 87 | 1 | 0.0 | 1.0 | 0.00 | 0.00 | 0.00 | 37 | 1021.9 |
| 20260903161603 | 86 | 264 | 1.0 | 4.0 | 0.00 | 0.00 | 0.00 | 34 | 1021.9 |
| 20260903160052 | 86 | 240 | 0.0 | 3.0 | 0.00 | 0.00 | 0.00 | 36 | 1022.0 |
| 20260903154555 | 86 | 261 | 1.0 | 4.0 | 0.00 | 0.00 | 0.00 | 34 | 1022.0 |
| 20260903153049 | 86 | 285 | 0.0 | 5.0 | 0.00 | 0.00 | 0.00 | 35 | 1022.1 |
| 20260903151600 | 86 | 260 | 1.0 | 4.0 | 0.00 | 0.00 | 0.00 | 35 | 1022.1 |
| 20260903150105 | 86 | 80 | 2.0 | 7.0 | 0.00 | 0.00 | 0.00 | 35 | 1022.1 |
| 20260903144602 | 86 | 56 | 0.0 | 8.0 | 0.00 | 0.00 | 0.00 | 36 | 1022.4 |
| 20260903143057 | 86 | 227 | 2.0 | 6.0 | 0.00 | 0.00 | 0.00 | 37 | 1022.3 |
| 20260903141549 | 85 | 266 | 0.0 | 5.0 | 0.00 | 0.00 | 0.00 | 38 | 1022.3 |
| 20260903140054 | 86 | 245 | 1.0 | 5.0 | 0.00 | 0.00 | 0.00 | 39 | 1022.3 |
| 20260903134551 | 85 | 346 | 0.0 | 4.0 | 0.00 | 0.00 | 0.00 | 41 | 1022.4 |
| 20260903133056 | 85 | 59 | 1.0 | 5.0 | 0.00 | 0.00 | 0.00 | 43 | 1022.4 |
| 20260903131604 | 84 | 87 | 0.0 | 4.0 | 0.00 | 0.00 | 0.00 | 43 | 1022.4 |
| 20260903130008 | 85 | 50 | 0.0 | 4.0 | 0.00 | 0.00 | 0.00 | 42 | 1022.7 |
| 20260903124603 | 84 | 304 | 1.0 | 4.0 | 0.00 | 0.00 | 0.00 | 43 | 1022.7 |
| 20260903123057 | 84 | 247 | 0.0 | 6.0 | 0.00 | 0.00 | 0.00 | 44 | 1022.7 |
| 20260903121554 | 82 | 282 | 2.0 | 6.0 | 0.00 | 0.00 | 0.00 | 45 | 1022.7 |
| 20260903120059 | 83 | 215 | 2.0 | 6.0 | 0.00 | 0.00 | 0.00 | 47 | 1023.0 |
| 20260903114601 | 82 | 230 | 0.0 | 6.0 | 0.00 | 0.00 | 0.00 | 47 | 1023.0 |
| 20260903113055 | 81 | 149 | 1.0 | 3.0 | 0.00 | 0.00 | 0.00 | 48 | 1023.1 |
| 20260903111605 | 81 | 241 | 1.0 | 5.0 | 0.00 | 0.00 | 0.00 | 49 | 1023.2 |
| 20260903104606 | 79 | 300 | 0.0 | 3.0 | 0.00 | 0.00 | 0.00 | 50 | 1023.5 |
| 20260903103052 | 78 | 203 | 0.0 | 5.0 | 0.00 | 0.00 | 0.00 | 52 | 1023.7 |
| 20260903101601 | 78 | 244 | 1.0 | 4.0 | 0.00 | 0.00 | 0.00 | 54 | 1024.0 |
| 20260903100052 | 77 | 281 | 0.0 | 4.0 | 0.00 | 0.00 | 0.00 | 56 | 1024.1 |
| 20260903094557 | 76 | 255 | 2.0 | 6.0 | 0.00 | 0.00 | 0.00 | 56 | 1024.1 |
| 20260903093055 | 75 | 188 | 0.0 | 4.0 | 0.00 | 0.00 | 0.00 | 60 | 1024.2 |
| 20260903091600 | 74 | 329 | 0.0 | 3.0 | 0.00 | 0.00 | 0.00 | 62 | 1024.2 |
| 20260903090101 | 73 | 144 | 1.0 | 3.0 | 0.00 | 0.00 | 0.00 | 64 | 1024.3 |
| 20260903084550 | 71 | 312 | 0.0 | 4.0 | 0.00 | 0.00 | 0.00 | 67 | 1024.3 |
| 20260903083105 | 70 | 269 | 0.0 | 2.0 | 0.00 | 0.00 | 0.00 | 69 | 1024.3 |
| 20260903081543 | 69 | 227 | 0.0 | 3.0 | 0.00 | 0.00 | 0.00 | 70 | 1024.2 |
| 20260903080146 | 67 | 262 | 0.0 | 3.0 | 0.00 | 0.00 | 0.00 | 74 | 1024.2 |
| 20260903074558 | 64 | 246 | 0.0 | 2.0 | 0.00 | 0.00 | 0.00 | 77 | 1024.2 |
| 20260903073108 | 62 | 335 | 0.0 | 2.0 | 0.00 | 0.00 | 0.00 | 81 | 1024.1 |
| 20260903071559 | 59 | 200 | 1.0 | 7.0 | 0.00 | 0.00 | 0.00 | 85 | 1024.3 |
| 20260903064603 | 54 | 254 | 0.0 | 2.0 | 0.00 | 0.00 | 0.00 | 92 | 1024.0 |
| 20260903063103 | 54 | 241 | 0.0 | 3.0 | 0.00 | 0.00 | 0.00 | 93 | 1023.9 |
| 20260903061557 | 52 | 219 | 0.0 | 0.0 | 0.00 | 0.00 | 0.00 | 94 | 1023.8 |
| 20260903054549 | 51 | 254 | 0.0 | 1.0 | 0.00 | 0.00 | 0.00 | 95 | 1023.7 |
| 20260903053108 | 51 | 235 | 0.0 | 3.0 | 0.00 | 0.00 | 0.00 | 95 | 1023.7 |
| 20260903051600 | 51 | 319 | 0.0 | 2.0 | 0.00 | 0.00 | 0.00 | 94 | 1023.6 |
| 20260903050057 | 51 | 217 | 0.0 | 1.0 | 0.00 | 0.00 | 0.00 | 94 | 1023.5 |
| 20260903044604 | 51 | 250 | 0.0 | 2.0 | 0.00 | 0.00 | 0.00 | 94 | 1023.2 |
| 20260903043107 | 51 | 236 | 0.0 | 2.0 | 0.00 | 0.00 | 0.00 | 93 | 1023.4 |
| 20260903041605 | 52 | 250 | 0.0 | 1.0 | 0.00 | 0.00 | 0.00 | 92 | 1023.3 |
| 20260903040050 | 53 | 214 | 0.0 | 5.0 | 0.00 | 0.00 | 0.00 | 92 | 1023.3 |
| 20260903034558 | 52 | 245 | 0.0 | 3.0 | 0.00 | 0.00 | 0.00 | 93 | 1023.3 |
| 20260903033049 | 52 | 240 | 0.0 | 1.0 | 0.00 | 0.00 | 0.00 | 93 | 1023.2 |
| 20260903031550 | 52 | 267 | 0.0 | 1.0 | 0.00 | 0.00 | 0.00 | 93 | 1023.2 |
| 20260903030105 | 52 | 226 | 0.0 | 2.0 | 0.00 | 0.00 | 0.00 | 93 | 1023.3 |
| 20260903024550 | 53 | 250 | 0.0 | 1.0 | 0.00 | 0.00 | 0.00 | 92 | 1023.1 |
| 20260903023055 | 53 | 242 | 0.0 | 0.0 | 0.00 | 0.00 | 0.00 | 91 | 1023.2 |
| 20260903021551 | 53 | 205 | 0.0 | 0.0 | 0.00 | 0.00 | 0.00 | 91 | 1023.1 |
| 20260903020058 | 54 | 220 | 0.0 | 1.0 | 0.00 | 0.00 | 0.00 | 90 | 1023.2 |
| 20260903014605 | 54 | 239 | 0.0 | 3.0 | 0.00 | 0.00 | 0.00 | 89 | 1023.0 |
| 20260903013106 | 55 | 316 | 0.0 | 1.0 | 0.00 | 0.00 | 0.00 | 89 | 1023.0 |
| 20260903011559 | 55 | 323 | 0.0 | 1.0 | 0.00 | 0.00 | 0.00 | 88 | 1023.0 |
| 20260903010048 | 55 | 208 | 0.0 | 2.0 | 0.00 | 0.00 | 0.00 | 87 | 1023.0 |
| 20260903004555 | 56 | 187 | 0.0 | 2.0 | 0.00 | 0.00 | 0.00 | 87 | 1023.0 |
| 20260903003103 | 56 | 195 | 0.0 | 1.0 | 0.00 | 0.00 | 0.00 | 86 | 1022.9 |
| 20260903001547 | 56 | 203 | 0.0 | 1.0 | 0.00 | 0.00 | 0.00 | 87 | 1022.9 |
| 20260903000059 | 56 | 202 | 0.0 | 0.0 | 0.00 | 0.00 | 0.00 | 87 | 1022.9 |
| 20260902234553 | 57 | 191 | 0.0 | 0.0 | 0.00 | 0.00 | 0.00 | 86 | 1023.2 |
| 20260902233139 | 57 | 198 | 0.0 | 0.0 | 0.00 | 0.00 | 0.00 | 85 | 1023.2 |
| 20260902231547 | 58 | 198 | 0.0 | 2.0 | 0.00 | 0.00 | 0.00 | 83 | 1023.2 |
| 20260902230111 | 59 | 156 | 0.0 | 0.0 | 0.00 | 0.00 | 0.00 | 82 | 1023.2 |
| 20260902224601 | 59 | 198 | 0.0 | 0.0 | 0.00 | 0.00 | 0.00 | 82 | 1023.1 |
| 20260902223051 | 59 | 198 | 0.0 | 2.0 | 0.00 | 0.00 | 0.00 | 81 | 1022.9 |
| 20260902221607 | 60 | 190 | 0.0 | 0.0 | 0.00 | 0.00 | 0.00 | 80 | 1022.8 |
| 20260902220105 | 60 | 188 | 0.0 | 1.0 | 0.00 | 0.00 | 0.00 | 79 | 1022.8 |